TimeCDT,TemperatureF,Dew PointF,Humidity,Sea Level PressureIn,VisibilityMPH,Wind Direction,Wind SpeedMPH,Gust SpeedMPH,PrecipitationIn,Events,Conditions,WindDirDegrees,DateUTC
12:56 AM,50.0,35.1,57,29.93,-9999.0,SSE,6.9,-,N/A,,Unknown,150,2012-10-09 05:56:00
1:56 AM,50.0,35.1,57,29.91,-9999.0,SE,5.8,-,N/A,,Unknown,140,2012-10-09 06:56:00
2:56 AM,48.0,36.0,63,29.88,-9999.0,SSE,9.2,-,N/A,,Unknown,150,2012-10-09 07:56:00
3:56 AM,46.9,36.0,66,29.86,-9999.0,SE,6.9,-,N/A,,Unknown,140,2012-10-09 08:56:00
4:56 AM,46.9,37.0,68,29.84,-9999.0,SSE,8.1,-,N/A,,Unknown,150,2012-10-09 09:56:00
5:56 AM,46.0,37.0,71,29.84,-9999.0,ESE,6.9,-,N/A,,Unknown,120,2012-10-09 10:56:00
6:56 AM,44.1,36.0,73,29.84,-9999.0,SE,9.2,-,N/A,,Unknown,130,2012-10-09 11:56:00
7:56 AM,44.1,37.0,76,29.84,-9999.0,SE,9.2,-,N/A,,Unknown,140,2012-10-09 12:56:00
8:56 AM,50.0,41.0,71,29.83,-9999.0,SSE,9.2,-,N/A,,Unknown,150,2012-10-09 13:56:00
9:56 AM,53.1,43.0,69,29.83,-9999.0,South,13.8,-,N/A,,Unknown,180,2012-10-09 14:56:00
10:56 AM,57.0,44.1,62,29.86,-9999.0,SSW,9.2,-,N/A,,Unknown,210,2012-10-09 15:56:00
11:56 AM,63.0,44.1,50,29.86,-9999.0,Variable,4.6,-,N/A,,Unknown,0,2012-10-09 16:56:00
12:56 PM,66.0,44.1,45,29.86,-9999.0,NNW,12.7,-,N/A,,Unknown,340,2012-10-09 17:56:00
1:56 PM,69.1,44.1,40,29.86,-9999.0,North,11.5,20.7,N/A,,Unknown,360,2012-10-09 18:56:00
2:56 PM,72.0,44.1,37,29.86,-9999.0,North,17.3,21.9,N/A,,Unknown,10,2012-10-09 19:56:00
3:56 PM,71.1,43.0,36,29.89,-9999.0,North,16.1,27.6,N/A,,Unknown,10,2012-10-09 20:56:00
4:56 PM,69.1,41.0,36,29.93,-9999.0,North,18.4,28.8,N/A,,Unknown,10,2012-10-09 21:56:00
5:56 PM,66.0,41.0,40,29.97,-9999.0,NNE,19.6,29.9,N/A,,Unknown,20,2012-10-09 22:56:00
6:56 PM,60.1,41.0,49,30.03,-9999.0,NNE,15.0,27.6,N/A,,Unknown,20,2012-10-09 23:56:00
7:56 PM,55.9,39.9,55,30.07,-9999.0,NNE,11.5,-,N/A,,Unknown,20,2012-10-10 00:56:00
8:56 PM,54.0,39.9,59,30.09,-9999.0,NNE,11.5,-,N/A,,Unknown,20,2012-10-10 01:56:00
9:56 PM,52.0,39.9,63,30.12,-9999.0,NE,10.4,-,N/A,,Unknown,40,2012-10-10 02:56:00
10:56 PM,46.0,39.0,76,30.17,-9999.0,North,5.8,-,N/A,,Unknown,10,2012-10-10 03:56:00
11:56 PM,44.1,37.0,76,30.18,-9999.0,NNE,4.6,-,N/A,,Unknown,20,2012-10-10 04:56:00